SCP
0 0 0 0 0 0 0 -0 0 0 0 0 0 0 0 0 0 1 0 -0 -0 0 0 0 0 0 0 0 0 0 0 0
0 0 0 0 0 0 0 0 0 0 0 0 0 0 0 0 0 0 0 0 0 0 0 0 0 0 0 0 0 0 0 0
0 0 0 0 0 0 0 0 0 0 0 0 0 0 0 0 0 0 0 0 1 0 0 0 0 0 0 0 0 0 0 0
0 0 0 0 0 0 0 0 0 0 0 0 0 0 0 0 0 0 0 0 0 0 0 -0 1 0 0 0 0 0 0 0
0 0 0 0 0 0 0 0 0 0 0 0 0 0 0 0 0 0 0 0 0 0 0 0 0 0 0 0 0 1 0 0
0 0 0 0 0 0 0 0 0 0 0 0 0 0 0 0 0 0 0 0 0 0 0 0 0 0 0 0 0 0 1 1
0 0 0 0 0 0 0 0 0 0 0 0 0 0 0 0 0 0 0 0 0 0 0 0 0 0 0 0 0 0 1 1
0 0 0 0 0 0 0 0 0 0 0 0 0 0 0 0 0 0 0 0 0 0 0 0 0 0 0 0 0 0 0 0
0 0 0 0 0 0 0 0 0 0 0 0 0 0 0 0 0 0 0 0 0 0 0 0 0 0 0 0 0 0 0 0
0 0 0 0 0 0 0 0 0 0 0 0 0 0 0 0 0 0 0 0 0 0 0 0 0 0 0 0 -0 0 0 0
0 0 0 0 0 0 0 0 0 0 0 0 0 0 0 0 0 0 0 0 0 0 0 0 0 0 0 0 0 0 0 0
0 0 0 0 0 0 0 0 0 0 0 0 0 0 0 0 0 0 0 0 0 0 0 0 0 0 0 0 0 0 0 0
0 0 0 0 0 0 0 0 0 0 0 0 0 0 0 0 0 0 0 0 0 0 0 0 0 0 0 0 0 0 0 0
0 0 0 0 0 0 0 0 0 0 0 0 0 0 0 0 0 0 0 0 0 0 0 0 0 0 0 0 0 0 0 0
0 0 0 0 0 0 0 0 0 0 0 0 0 0 0 0 0 0 0 0 0 0 0 0 0 0 0 0 0 0 0 0
0 0 0 0 0 0 0 0 0 0 0 0 0 0 0 0 0 0 0 0 0 0 0 0 0 0 0 0 0 0 0 0
0 0 0 0 0 0 0 0 0 0 0 0 0 0 0 0 0 0 0 0 0 0 0 0 0 0 0 0 0 0 0 0
0 0 0 0 0 0 0 0 0 0 0 0 0 0 0 0 0 0 0 0 0 0 0 0 0 0 0 0 0 0 0 0
0 0 0 0 0 0 0 0 0 0 0 0 0 0 0 0 0 0 0 0 0 0 0 0 0 0 0 0 0 0 0 0
Wind_Speed_500mb
9 27 17 35 40 50 30 35 29 26 30 27 26 25 30 16 14 25 11 57 53 51 62 70 65 60 55 49 44 40 41 40
21 19 27 25 31 38 20 28 33 31 35 27 28 23 16 22 25 29 24 15 30 61 65 58 78 64 56 50 45 41 37 39
17 27 33 22 25 30 27 31 24 26 17 35 28 22 19 22 26 30 33 29 17 11 37 56 55 63 60 51 46 39 36 36
35 10 8 21 22 34 22 36 27 10 20 31 29 39 33 26 25 28 29 29 38 32 17 28 32 29 50 50 48 44 38 35
12 15 15 21 23 20 29 32 23 30 22 31 24 40 37 31 29 32 35 37 39 38 28 37 37 25 26 22 23 38 44 39
10 5 25 37 15 19 26 22 22 6 48 39 36 34 33 34 32 35 39 41 42 46 45 36 27 20 15 21 20 17 22 37
11 11 14 16 20 15 29 35 19 36 40 39 33 34 39 31 31 35 38 40 42 43 45 45 41 24 8 10 18 20 25 16
13 0 0 11 14 10 10 8 16 36 35 31 37 32 31 30 30 29 30 32 33 34 34 36 40 39 33 9 4 14 22 23
25 10 10 21 24 21 14 10 17 33 35 35 31 32 28 26 24 24 25 24 26 27 27 29 30 30 35 33 24 7 11 19
17 8 23 10 11 5 15 14 14 28 33 35 33 30 23 18 19 18 17 17 18 20 21 23 23 26 26 26 37 28 17 12
23 17 6 13 9 13 24 22 13 25 22 26 27 34 22 14 12 12 12 12 14 16 19 19 20 24 24 22 24 26 32 29
15 21 28 32 24 8 2 21 22 19 26 26 27 23 27 14 9 7 9 12 14 17 16 16 19 21 22 20 21 23 27 27
19 14 6 21 17 12 19 11 28 21 22 15 7 23 20 7 3 5 7 10 16 17 18 18 20 22 22 22 21 24 26 27
19 20 23 24 15 13 23 27 25 22 18 13 7 7 5 3 5 9 11 12 13 16 17 20 24 25 25 25 27 30 31 31
6 8 16 21 9 23 19 23 14 12 14 10 8 4 2 4 7 9 10 12 14 16 19 19 21 25 32 33 34 36 37 36
10 14 10 17 13 14 13 18 18 16 14 12 12 9 9 6 8 10 12 15 17 19 17 18 20 23 26 35 41 42 42 43
15 7 13 20 20 20 18 17 16 14 13 12 9 7 2 4 7 10 15 17 19 23 24 25 28 27 28 33 35 41 45 45
9 15 26 16 34 26 25 22 19 17 15 12 9 5 2 2 6 10 16 20 23 24 25 28 26 27 28 30 29 34 39 43
24 8 17 11 26 31 28 25 21 19 16 13 8 5 4 6 7 15 17 22 25 27 27 29 30 26 28 31 34 34 35 40
Wind_Direction_500mb
260 250 265 192 234 227 271 208 211 133 91 125 115 94 66 49 7 9 241 190 200 201 193 200 196 193 196 200 208 210 215 217
173 232 254 269 226 239 245 249 213 134 160 147 140 97 67 41 32 24 12 210 176 191 203 208 192 192 195 200 205 208 210 217
180 205 208 213 241 244 246 260 213 154 117 114 115 99 88 59 41 31 40 44 58 113 216 213 193 191 194 200 206 210 212 214
203 92 314 301 242 218 243 230 271 2 95 100 132 123 99 80 57 51 48 46 53 51 23 111 148 171 198 197 208 213 216 216
185 191 209 236 219 270 255 273 269 251 137 128 131 100 94 89 72 59 55 46 45 46 45 45 63 85 186 196 230 215 216 218
13 76 202 207 226 233 270 241 244 195 138 144 135 115 97 96 84 71 59 55 49 43 41 34 29 46 121 186 196 209 206 216
60 13 358 166 200 218 237 253 308 129 145 142 130 119 120 100 88 79 71 62 55 49 44 39 39 36 18 228 207 187 188 216
205 292 290 227 169 265 285 281 253 120 109 112 114 121 113 110 101 84 75 66 62 59 54 46 34 29 37 11 288 240 237 224
243 149 247 239 216 210 189 232 260 155 141 138 145 134 121 112 97 86 76 68 60 55 49 45 40 33 22 21 24 335 232 233
256 178 241 81 17 247 178 176 71 90 128 151 137 128 117 105 104 89 74 62 50 41 36 34 29 26 26 22 7 9 10 277
254 218 171 155 175 186 195 157 178 136 134 132 148 142 139 119 99 83 60 46 30 18 15 15 13 11 11 14 12 6 4 359
208 254 236 72 106 47 181 192 161 161 166 162 172 205 123 132 99 64 27 9 0 357 357 354 353 354 355 355 356 353 355 351
227 230 214 104 122 156 212 105 148 172 158 163 169 67 110 112 52 10 357 349 343 341 337 332 334 333 337 335 335 333 334 333
242 225 229 135 150 226 92 121 126 128 138 140 117 106 103 31 332 324 322 322 323 325 319 318 320 321 317 314 313 315 317 319
267 49 88 145 68 127 135 142 149 162 150 168 178 163 68 30 20 0 345 330 324 317 314 315 314 313 309 306 305 306 304 305
352 162 154 148 142 158 162 139 137 135 140 143 138 131 112 70 30 12 354 347 339 338 327 317 314 312 304 303 301 299 296 296
243 210 188 191 183 169 154 148 142 138 140 140 146 144 86 35 19 4 353 342 332 323 319 319 319 314 314 309 298 293 292 290
228 238 210 239 196 188 175 167 167 164 159 152 145 149 132 59 0 355 349 344 336 326 318 312 308 315 316 317 293 297 287 285
248 232 241 224 190 190 188 186 182 178 173 177 191 217 261 300 319 330 330 329 328 322 316 319 313 310 315 311 316 291 293 286
Wind_Speed_850mb
9 27 17 35 40 50 30 35 29 26 30 27 26 25 30 16 14 25 11 57 53 51 62 70 65 60 55 49 44 40 41 40
21 19 27 25 31 38 20 28 33 31 35 27 28 23 16 22 25 29 24 15 30 61 65 58 78 64 56 50 45 41 37 39
17 27 33 22 25 30 27 31 24 26 17 35 28 22 19 22 26 30 33 29 17 11 37 56 55 63 60 51 46 39 36 36
35 10 8 21 22 34 22 36 27 10 20 31 29 39 33 26 25 28 29 29 38 32 17 28 32 29 50 50 48 44 38 35
12 15 15 21 23 20 29 32 23 30 22 31 24 40 37 31 29 32 35 37 39 38 28 37 37 25 26 22 23 38 44 39
10 5 25 37 15 19 26 22 22 6 48 39 36 34 33 34 32 35 39 41 42 46 45 36 27 20 15 21 20 17 22 37
11 11 14 16 20 15 29 35 19 36 40 39 33 34 39 31 31 35 38 40 42 43 45 45 41 24 8 10 18 20 25 16
13 0 0 11 14 10 10 8 16 36 35 31 37 32 31 30 30 29 30 32 33 34 34 36 40 39 33 9 4 14 22 23
25 10 10 21 24 21 14 10 17 33 35 35 31 32 28 26 24 24 25 24 26 27 27 29 30 30 35 33 24 7 11 19
17 8 23 10 11 5 15 14 14 28 33 35 33 30 23 18 19 18 17 17 18 20 21 23 23 26 26 26 37 28 17 12
23 17 6 13 9 13 24 22 13 25 22 26 27 34 22 14 12 12 12 12 14 16 19 19 20 24 24 22 24 26 32 29
15 21 28 32 24 8 2 21 22 19 26 26 27 23 27 14 9 7 9 12 14 17 16 16 19 21 22 20 21 23 27 27
19 14 6 21 17 12 19 11 28 21 22 15 7 23 20 7 3 5 7 10 16 17 18 18 20 22 22 22 21 24 26 27
19 20 23 24 15 13 23 27 25 22 18 13 7 7 5 3 5 9 11 12 13 16 17 20 24 25 25 25 27 30 31 31
6 8 16 21 9 23 19 23 14 12 14 10 8 4 2 4 7 9 10 12 14 16 19 19 21 25 32 33 34 36 37 36
10 14 10 17 13 14 13 18 18 16 14 12 12 9 9 6 8 10 12 15 17 19 17 18 20 23 26 35 41 42 42 43
15 7 13 20 20 20 18 17 16 14 13 12 9 7 2 4 7 10 15 17 19 23 24 25 28 27 28 33 35 41 45 45
9 15 26 16 34 26 25 22 19 17 15 12 9 5 2 2 6 10 16 20 23 24 25 28 26 27 28 30 29 34 39 43
24 8 17 11 26 31 28 25 21 19 16 13 8 5 4 6 7 15 17 22 25 27 27 29 30 26 28 31 34 34 35 40
Wind_Direction_850mb
260 250 265 192 234 227 271 208 211 133 91 125 115 94 66 49 7 9 241 190 200 201 193 200 196 193 196 200 208 210 215 217
173 232 254 269 226 239 245 249 213 134 160 147 140 97 67 41 32 24 12 210 176 191 203 208 192 192 195 200 205 208 210 217
180 205 208 213 241 244 246 260 213 154 117 114 115 99 88 59 41 31 40 44 58 113 216 213 193 191 194 200 206 210 212 214
203 92 314 301 242 218 243 230 271 2 95 100 132 123 99 80 57 51 48 46 53 51 23 111 148 171 198 197 208 213 216 216
185 191 209 236 219 270 255 273 269 251 137 128 131 100 94 89 72 59 55 46 45 46 45 45 63 85 186 196 230 215 216 218
13 76 202 207 226 233 270 241 244 195 138 144 135 115 97 96 84 71 59 55 49 43 41 34 29 46 121 186 196 209 206 216
60 13 358 166 200 218 237 253 308 129 145 142 130 119 120 100 88 79 71 62 55 49 44 39 39 36 18 228 207 187 188 216
205 292 290 227 169 265 285 281 253 120 109 112 114 121 113 110 101 84 75 66 62 59 54 46 34 29 37 11 288 240 237 224
243 149 247 239 216 210 189 232 260 155 141 138 145 134 121 112 97 86 76 68 60 55 49 45 40 33 22 21 24 335 232 233
256 178 241 81 17 247 178 176 71 90 128 151 137 128 117 105 104 89 74 62 50 41 36 34 29 26 26 22 7 9 10 277
254 218 171 155 175 186 195 157 178 136 134 132 148 142 139 119 99 83 60 46 30 18 15 15 13 11 11 14 12 6 4 359
208 254 236 72 106 47 181 192 161 161 166 162 172 205 123 132 99 64 27 9 0 357 357 354 353 354 355 355 356 353 355 351
227 230 214 104 122 156 212 105 148 172 158 163 169 67 110 112 52 10 357 349 343 341 337 332 334 333 337 335 335 333 334 333
242 225 229 135 150 226 92 121 126 128 138 140 117 106 103 31 332 324 322 322 323 325 319 318 320 321 317 314 313 315 317 319
267 49 88 145 68 127 135 142 149 162 150 168 178 163 68 30 20 0 345 330 324 317 314 315 314 313 309 306 305 306 304 305
352 162 154 148 142 158 162 139 137 135 140 143 138 131 112 70 30 12 354 347 339 338 327 317 314 312 304 303 301 299 296 296
243 210 188 191 183 169 154 148 142 138 140 140 146 144 86 35 19 4 353 342 332 323 319 319 319 314 314 309 298 293 292 290
228 238 210 239 196 188 175 167 167 164 159 152 145 149 132 59 0 355 349 344 336 326 318 312 308 315 316 317 293 297 287 285
248 232 241 224 190 190 188 186 182 178 173 177 191 217 261 300 319 330 330 329 328 322 316 319 313 310 315 311 316 291 293 286